Weather Roundup
Issued by NWS Chicago, IL

Home | Current Version | Previous Version | Text Only | Print | Product List | Glossary Off
Versions: 1 2 3 4 5 6 7 8 9 10 11 12 13 14 15 16 17 18 19 20 21 22 23 24 25 26 27 28 29 30 31 32 33 34 35 36 37 38 39 40 41 42 43 44 45 46 47 48 49 50

000
NZUS59 KLOT 311012
HRRLOT

CHICAGO AREA WEATHER ROUNDUP
NATIONAL WEATHER SERVICE CHICAGO/ROMEOVILLE IL
500 AM CDT FRI JUL 31 2015

NOTE: "FAIR" INDICATES FEW OR NO CLOUDS BELOW 12,000 FEET WITH NO
SIGNIFICANT WEATHER AND/OR OBSTRUCTIONS TO VISIBILITY.

* THESE STATIONS ARE NOT UNDER NWS QUALITY CONTROL. THEY ALSO MAY NOT
  REPORT WEATHER SUCH AS PRECIPITATION OR FOG.

ILZ005-006-012>014-019>023-311100-
NORTHEAST ILLINOIS

CITY           SKY/WX    TMP DP  RH WIND       PRES   REMARKS
OHARE          CLEAR     67  58  72 W7        30.01F
MIDWAY         CLEAR     72  57  59 W5        30.02F
AURORA         CLEAR     61  57  87 CALM      30.04F
LANSING*       CLEAR     62  59  90 SW3       30.03F
JOLIET*        CLEAR     62  62  98 CALM      30.04F
WAUKEGAN       CLEAR     67  57  70 SW3       30.00F
DUPAGE AIRPORT CLEAR     63  57  81 CALM      30.03F
WHEELING       CLEAR     70  57  63 CALM      30.03S
KANKAKEE*      CLEAR     64  63  97 W3        30.05F
MORRIS*        CLEAR     63  61  93 W3        30.03F
LEWIS AIRPORT* CLEAR     62  58  88 SW5       30.04S
NORTHERLY IS     N/A     73  57  57 W7          N/A
$$

WIZ051-052-058>065-066-070>072-311100-
SOUTHEAST WISCONSIN

CITY           SKY/WX    TMP DP  RH WIND       PRES   REMARKS
MILWAUKEE      CLEAR     70  56  61 W3        29.98F
KENOSHA*       CLEAR     63  57  81 W5        30.00F
RACINE*        CLEAR     67  56  67 W7        30.00F
BURLINGTON     CLEAR     59  55  87 S3        30.00F
WAUKESHA       CLEAR     64  54  68 SW5       30.00F
WEST BEND      CLEAR     64  54  68 SW3       29.98S
$$

INZ001>003-010>013-019-020-311100-
NORTHWEST INDIANA

CITY           SKY/WX    TMP DP  RH WIND       PRES   REMARKS
GARY*          CLEAR     66  63  88 SW7       30.03F
MICHIGAN CITY* NOT AVBL
RENSSELAER*    NOT AVBL
VALPARAISO     CLEAR     65  60  84 W6        30.04S
$$

LMZ740>746-311100-
SOUTHERN LAKE MICHIGAN

STATION/POSITION TIME  SKY/WX   TEMP WIND        PRES    VSBY
                                AIR  DIR/SP/G
                 (UTC)          (F)  (DEG/KT/KT) (MB)    (MI)
HARRISON CRIB    0900            74  270/ 13/ 15   N/A
BURNHAM HARBOR   1000            74  280/  6/  8   N/A
CALUMET HARBOR   0900            72  260/  2/  4   N/A
BURNS HARBOR     0900            74  240/  8/ 10 1016.9F
MICHIGAN CITY    0900            74  230/ 11/ 12   N/A
$$

ABBREVIATIONS USED IN REMARKS
   TC - TEMPERATURE IN CELSIUS
  WCI - WIND CHILL INDEX
   HX - HEAT INDEX
  VSB - VISIBILITY
$$


USA.gov is the U.S. government's official web portal to all federal, state and local government web resources and services.